Temperature
18 16 16 17 17 18 19 19 18 18 18 17 16 15 15 15 14 14 14 13 14 14 14 14 15 15 15 16 16 16 15 15 16 16 16 16 16 15 15 15 15 15 15 15
16 17 18 18 17 18 18 18 17 17 18 17 16 15 15 15 14 14 13 13 13 13 14 14 14 15 15 15 15 15 15 15 15 15 15 15 15 15 15 15 15 15 15 15
18 18 19 19 19 18 18 18 18 18 17 16 16 16 15 14 14 13 13 13 13 13 13 13 14 14 14 14 14 14 14 14 14 15 15 15 14 14 14 14 14 14 14 14
18 18 19 19 19 19 18 19 18 18 16 15 16 15 15 14 14 13 13 12 12 12 12 12 13 13 13 13 13 14 14 14 14 14 14 14 14 14 14 14 14 14 14 14
19 20 20 20 20 19 19 19 18 17 16 15 15 15 14 14 14 14 13 12 12 12 12 12 12 12 12 12 13 13 13 13 13 13 14 13 13 13 13 13 13 13 13 13
19 19 20 20 20 20 19 17 16 14 14 15 16 15 15 13 14 13 12 11 11 11 11 11 11 11 12 12 12 12 12 12 12 12 12 12 12 12 12 12 12 12 12 12
19 19 20 20 20 19 18 16 16 16 15 15 15 14 14 14 14 13 12 11 10 10 10 10 10 11 11 11 11 11 11 11 11 11 11 11 11 11 11 11 11 11 11 12
18 18 20 20 20 19 18 17 16 16 16 14 14 14 14 13 13 12 12 11 10 10 10 10 10 10 10 10 10 10 10 10 10 10 10 10 10 11 11 11 11 11 11 11
18 18 20 20 20 19 18 16 15 14 14 14 14 14 14 12 12 11 10 10 9 9 9 9 9 9 9 9 9 9 9 9 9 10 9 10 10 10 10 10 10 10 10 10
17 18 19 19 19 18 17 14 13 14 14 15 15 14 13 13 12 11 10 10 9 9 9 8 8 9 8 9 9 9 9 9 9 9 9 9 9 9 9 9 9 9 9 9
17 17 18 18 18 18 17 16 13 12 13 14 14 14 14 13 12 11 10 9 9 9 8 8 8 8 8 8 8 8 8 8 8 8 8 8 8 8 8 8 8 8 8 8
15 14 16 17 17 17 17 16 14 15 14 13 13 13 13 12 11 11 10 9 9 8 8 8 8 8 8 8 8 8 8 8 8 8 8 8 7 8 7 7 7 7 7 8
15 14 15 16 16 16 17 16 14 12 12 11 13 14 12 11 10 10 9 9 8 8 8 8 8 7 7 7 7 7 7 7 7 7 7 7 7 7 7 7 7 7 7 7
15 13 14 16 16 16 16 16 14 13 13 12 13 14 13 11 10 9 9 8 8 8 8 7 7 7 7 7 7 7 7 7 7 7 7 7 6 6 6 6 6 6 6 6
14 14 15 15 16 16 16 16 15 14 14 14 14 13 13 11 10 9 8 8 8 7 7 7 7 7 7 7 6 6 6 6 6 6 6 6 6 6 6 6 6 6 6 6
12 14 15 15 16 16 16 16 16 15 15 14 14 13 12 11 10 9 8 8 7 7 7 7 7 7 6 6 6 6 6 6 6 6 6 6 5 5 5 5 5 5 5 5
12 13 13 14 14 16 15 16 16 16 15 14 14 13 10 10 9 9 8 8 8 8 7 7 7 7 6 6 6 6 6 6 6 6 6 6 5 5 5 5 5 5 5 5
12 12 11 12 14 15 15 15 15 15 14 13 12 11 10 10 9 9 9 8 8 8 7 7 7 6 6 6 6 6 6 6 6 6 6 5 5 5 5 5 5 5 5 5
11 11 11 11 13 14 15 15 15 14 14 12 11 10 9 9 8 8 8 9 9 8 8 7 7 6 6 6 6 6 6 6 6 6 5 5 5 5 5 5 5 5 5 5
11 11 11 12 14 14 15 15 15 14 14 12 10 9 9 9 9 8 8 8 8 8 7 7 7 6 6 6 6 6 6 6 6 6 5 5 5 5 5 5 5 5 5 5
11 11 11 12 13 13 14 14 15 15 14 12 10 9 9 9 9 9 8 8 8 7 7 7 7 6 6 6 6 6 6 6 6 5 5 5 5 5 5 5 5 5 5 5
11 11 11 11 12 13 14 14 13 13 12 11 10 10 9 9 9 9 8 8 7 7 7 7 6 6 6 6 6 6 6 6 5 5 5 5 5 5 5 5 5 5 5 5
11 11 10 11 11 12 12 12 13 13 12 11 11 10 10 9 9 8 7 7 7 7 7 7 6 6 6 6 6 6 6 6 5 5 5 5 5 5 5 5 5 5 5 5
10 10 10 10 11 12 12 12 13 13 13 12 11 11 10 9 8 8 7 7 7 7 7 7 6 6 6 6 6 6 6 6 6 6 5 5 5 5 5 5 5 5 5 5
10 10 10 10 11 11 12 12 13 13 13 12 11 11 10 10 8 8 7 7 7 7 7 7 6 6 6 6 6 6 6 6 6 6 6 5 5 5 5 5 5 5 5 5
9 10 10 11 11 11 12 12 12 12 12 12 11 10 9 9 9 8 8 7 7 7 7 6 6 6 6 6 6 6 6 6 6 6 6 6 6 6 6 6 5 5 5 5
Wind_Speed
4 5 2 6 7 5 3 2 4 4 1 4 6 6 4 4 6 7 7 6 6 5 5 7 7 7 7 7 6 5 4 3 2 1 1 1 1 1 1 1 2 2 1 1
5 3 7 5 5 5 4 3 3 2 3 5 6 6 4 4 5 5 6 6 5 5 6 7 7 8 8 7 6 5 4 4 3 2 1 1 1 1 1 2 3 3 3 1
4 6 3 3 3 4 4 6 5 3 4 6 6 3 2 3 5 7 6 5 5 5 5 6 7 7 7 7 7 5 5 4 4 3 2 2 2 1 2 2 2 3 3 3
5 6 2 2 3 5 3 6 6 5 5 1 3 2 2 2 3 5 5 5 4 4 5 5 7 7 7 7 6 7 6 6 5 4 3 2 1 1 1 1 1 3 4 4
4 3 2 3 4 6 4 3 4 4 5 3 3 3 4 2 4 4 5 5 4 4 5 5 6 6 6 7 7 7 7 8 7 6 5 3 2 2 2 3 4 4 4 5
6 4 3 3 1 3 5 7 7 6 5 2 1 3 4 4 5 6 6 6 5 5 6 6 6 6 7 8 8 8 8 8 8 7 6 5 4 5 5 5 5 4 4 4
6 5 3 1 2 4 5 6 4 5 4 3 2 2 6 3 3 6 8 7 6 5 5 5 7 7 8 9 9 8 8 8 8 8 8 7 7 6 6 5 5 5 5 5
2 5 4 2 3 3 2 7 7 4 4 4 2 4 4 1 4 6 8 8 7 6 5 6 6 6 7 8 8 8 8 7 7 8 7 7 7 6 6 6 6 6 5 5
3 4 4 3 1 5 5 3 5 6 3 0 4 4 2 5 6 7 8 7 7 6 5 5 6 6 7 7 7 7 7 7 8 8 7 8 8 8 7 7 7 6 5 5
6 3 4 4 5 6 4 8 6 5 4 3 4 4 5 7 9 9 8 8 7 6 6 5 5 6 6 6 7 8 8 8 7 7 7 7 8 8 8 8 8 8 7 7
2 3 4 4 3 1 3 4 5 4 4 5 3 6 4 8 10 11 10 9 9 7 6 5 5 5 5 6 7 7 8 8 7 8 8 8 8 8 8 8 8 8 8 8
2 4 1 4 3 1 2 4 6 4 3 4 4 7 2 4 7 10 10 10 9 8 7 6 5 5 6 7 7 7 7 8 7 7 8 8 8 8 9 9 8 8 9 8
2 4 3 6 6 3 1 2 4 5 5 5 4 6 1 5 8 10 11 11 10 9 7 6 6 5 5 6 6 7 7 7 7 7 8 9 9 9 9 8 8 9 9 9
3 3 5 5 6 3 3 2 4 5 4 5 7 7 3 6 9 10 11 11 10 9 8 7 6 5 5 5 5 6 6 6 7 7 8 9 8 8 8 8 8 8 8 9
4 1 2 5 5 4 4 5 5 6 7 8 7 7 7 8 10 11 11 12 11 9 8 7 6 5 4 5 5 5 5 6 6 7 8 7 7 7 7 8 8 8 8 8
4 1 1 3 3 3 5 6 5 5 4 5 3 4 1 7 9 11 12 12 11 10 9 8 6 6 5 4 4 4 5 5 5 6 6 5 6 7 7 7 8 8 8 8
2 1 2 3 5 4 5 4 3 3 3 5 6 4 7 8 11 12 12 12 12 11 10 8 7 6 5 4 4 4 4 4 5 5 5 6 6 7 7 7 8 8 8 8
3 2 2 1 3 4 6 3 2 2 1 2 2 5 8 8 7 7 9 11 11 11 10 8 7 6 5 4 4 4 4 4 5 5 5 6 6 7 7 7 8 7 6 7
6 5 3 2 2 6 5 2 1 1 2 1 5 8 8 11 8 4 5 8 9 9 9 8 7 6 5 4 4 5 5 5 5 4 4 5 6 7 7 7 6 5 5 6
3 4 4 2 2 4 5 3 1 2 3 2 7 11 12 9 5 5 7 9 10 10 9 8 8 7 6 4 5 6 5 5 5 4 4 5 6 6 6 5 5 4 5 5
2 2 2 3 4 6 4 4 1 1 5 3 7 11 11 6 4 8 12 10 10 10 10 9 9 7 5 5 6 6 5 4 4 4 5 6 6 5 5 5 4 5 5 6
1 2 2 3 3 6 3 2 2 4 1 4 7 8 8 9 11 12 12 12 12 11 10 9 8 7 5 6 7 6 4 3 4 5 6 6 5 4 5 6 5 5 5 6
2 4 3 5 6 4 2 3 3 2 3 4 7 9 11 12 12 12 11 12 11 11 9 8 9 8 5 5 6 6 4 4 5 6 6 5 5 5 4 4 5 4 4 4
3 1 1 4 5 4 3 2 2 2 3 6 10 11 12 12 14 13 12 11 10 9 9 8 9 8 5 4 5 5 5 5 6 6 5 5 5 5 5 4 3 3 3 3
5 2 2 4 4 3 3 2 2 5 8 11 10 8 12 16 15 13 12 11 9 9 7 8 8 7 6 5 5 4 5 6 6 6 5 4 4 4 4 4 3 2 1 2
5 6 5 5 4 3 3 1 3 6 8 11 12 9 10 13 15 12 12 10 9 9 8 8 8 7 6 6 5 4 5 6 6 5 4 3 3 3 3 3 4 6 4 3
Wind_Direction
64 73 224 228 200 195 184 222 279 282 269 82 99 100 79 88 97 100 97 91 80 59 37 31 24 31 41 40 40 36 31 19 32 56 62 75 71 55 79 82 70 81 115 178
36 299 240 219 198 189 197 239 264 331 74 110 106 83 72 87 105 114 112 103 90 62 36 32 31 32 35 35 33 33 28 23 25 17 14 74 64 48 51 57 55 58 61 87
200 245 231 199 228 209 217 200 205 183 72 77 107 60 51 79 95 101 99 98 89 80 55 30 27 26 23 26 25 25 22 32 30 32 49 62 68 47 35 37 32 49 68 59
242 259 252 272 254 175 249 218 181 155 121 119 125 160 247 145 124 121 115 108 93 74 63 44 32 25 22 19 20 25 29 34 27 36 55 58 72 68 36 37 44 40 51 51
270 256 270 274 247 173 201 90 116 116 123 92 50 129 257 166 179 169 150 135 112 84 67 51 39 30 26 24 25 23 32 38 29 29 40 51 57 64 54 55 55 47 42 45
251 267 228 234 300 140 127 74 63 55 76 86 253 157 244 214 199 177 162 145 121 93 70 51 37 32 29 27 29 28 37 37 31 33 36 39 49 62 64 57 47 40 40 41
328 325 301 189 61 39 82 89 38 7 17 247 271 183 241 227 190 177 167 146 121 99 80 57 41 33 30 29 29 29 38 40 35 39 41 42 47 56 63 58 52 49 42 40
338 315 315 342 168 167 148 136 154 197 217 261 310 233 253 121 111 122 131 130 121 103 82 66 51 40 35 32 31 32 36 40 38 40 41 43 47 55 56 55 57 52 45 40
190 271 309 346 31 129 125 117 150 131 133 169 275 274 288 131 128 127 132 132 125 109 92 76 58 45 40 33 30 32 43 44 42 43 46 49 48 53 55 54 54 53 45 47
171 237 315 329 53 40 111 138 97 115 149 239 279 261 234 197 183 168 161 153 137 117 98 82 65 51 45 40 36 38 45 48 47 49 53 59 54 53 54 56 54 51 48 48
127 169 319 12 49 31 77 83 96 107 148 161 245 266 223 201 183 176 168 154 143 128 114 98 76 59 52 47 46 46 46 48 50 52 55 58 55 54 56 57 53 52 52 50
75 119 297 291 287 221 154 156 148 150 208 177 190 264 306 180 164 156 151 145 137 128 121 108 92 72 59 52 49 49 49 51 51 55 60 59 58 58 58 55 51 53 55 52
76 101 42 348 347 356 63 136 137 125 123 160 186 259 60 111 127 139 144 143 137 131 123 109 92 77 69 63 57 54 51 53 52 57 63 61 57 56 56 54 52 53 56 55
98 106 163 203 232 262 286 217 155 134 159 207 223 239 216 161 150 147 146 143 139 135 128 117 101 85 77 73 65 59 53 54 61 61 63 61 55 55 56 55 54 53 55 56
70 116 225 244 251 239 241 247 205 196 198 202 236 228 230 189 167 156 148 144 143 140 137 129 118 104 94 82 69 65 63 62 66 67 65 62 58 58 59 58 55 54 53 56
42 78 350 307 303 280 262 257 236 217 202 212 234 256 199 133 132 142 151 152 152 149 145 136 130 123 112 99 87 76 69 67 75 77 73 67 66 65 63 61 60 59 56 53
360 70 38 298 317 340 291 264 223 218 205 187 213 216 140 139 153 160 161 159 155 151 146 142 139 133 124 116 104 91 78 72 74 73 73 75 74 72 69 71 68 62 57 56
178 129 130 298 358 264 257 296 184 176 248 197 159 143 150 143 131 133 147 153 152 149 144 140 136 130 120 111 101 92 82 79 77 70 70 78 83 81 76 72 70 65 61 59
178 154 142 143 264 284 302 323 152 184 288 151 140 131 120 116 98 99 132 142 145 141 137 135 134 129 120 117 114 98 87 86 82 76 75 85 92 90 85 79 72 66 68 63
100 116 134 154 211 255 271 298 244 114 289 183 149 148 147 138 147 176 148 130 127 126 129 130 127 118 116 115 113 107 98 89 83 82 84 88 91 91 90 88 81 72 75 72
53 76 160 188 232 267 281 304 50 174 271 190 161 159 157 161 159 141 134 126 127 128 129 128 124 121 124 121 112 107 102 93 92 96 91 87 86 88 92 87 82 87 83 77
207 187 200 173 211 261 324 26 176 235 272 139 147 147 134 118 117 125 129 129 130 128 128 129 125 121 118 120 116 111 106 97 95 95 89 82 78 83 92 89 83 84 88 81
226 203 208 206 223 255 295 271 278 188 150 141 142 136 130 128 131 130 131 132 132 131 131 128 128 122 115 123 126 122 115 104 99 88 82 78 75 70 79 91 95 88 85 89
285 191 224 275 276 298 325 331 351 112 134 134 138 137 136 135 138 134 134 134 132 129 131 130 128 126 124 122 119 123 117 107 99 91 81 77 80 74 67 71 87 101 105 106
254 256 246 269 281 325 351 18 74 89 108 117 120 130 139 139 140 139 138 139 136 132 130 132 134 133 132 123 116 116 117 112 103 98 90 81 83 90 81 70 62 93 112 179
218 202 201 238 235 210 250 187 123 122 130 133 126 123 133 142 141 137 139 138 136 134 132 131 131 132 133 131 128 124 125 121 115 105 100 97 95 91 93 92 68 50 57 80
Height
1489 1495 1499 1497 1496 1497 1498 1501 1505 1501 1496 1500 1505 1507 1507 1506 1506 1507 1509 1510 1511 1512 1512 1512 1512 1511 1511 1511 1511 1512 1512 1513 1514 1514 1515 1516 1516 1517 1517 1518 1519 1520 1521 1523
1495 1497 1491 1490 1492 1495 1498 1502 1503 1501 1497 1501 1507 1510 1509 1508 1509 1510 1511 1512 1512 1513 1513 1513 1512 1512 1511 1511 1511 1511 1511 1512 1512 1513 1513 1514 1514 1515 1515 1515 1515 1516 1517 1519
1494 1491 1486 1488 1490 1493 1496 1499 1499 1500 1500 1503 1507 1514 1512 1511 1511 1512 1513 1513 1514 1514 1514 1513 1513 1512 1512 1511 1511 1510 1511 1511 1511 1511 1512 1512 1513 1513 1513 1513 1513 1514 1515 1516
1490 1486 1485 1486 1488 1489 1495 1488 1491 1495 1505 1514 1511 1523 1515 1513 1513 1513 1514 1514 1514 1515 1515 1514 1513 1513 1512 1511 1511 1510 1510 1510 1510 1510 1510 1511 1511 1511 1511 1512 1512 1512 1513 1513
1489 1484 1484 1486 1483 1484 1487 1485 1490 1496 1505 1514 1515 1522 1520 1513 1513 1513 1514 1515 1515 1515 1515 1515 1514 1513 1513 1512 1511 1511 1510 1509 1509 1508 1509 1509 1509 1509 1510 1510 1510 1511 1511 1511
1485 1481 1481 1480 1478 1480 1483 1490 1496 1505 1511 1521 1516 1520 1520 1514 1511 1511 1513 1514 1515 1515 1515 1515 1515 1514 1513 1513 1512 1511 1510 1509 1509 1508 1508 1509 1509 1508 1509 1509 1509 1509 1510 1510
1488 1482 1478 1477 1481 1483 1486 1500 1516 1518 1526 1524 1516 1518 1517 1508 1507 1508 1511 1513 1515 1516 1516 1516 1516 1515 1514 1513 1512 1511 1511 1510 1509 1508 1508 1509 1508 1508 1508 1509 1509 1509 1509 1509
1497 1496 1482 1478 1480 1485 1489 1496 1516 1524 1526 1524 1517 1518 1512 1506 1506 1507 1510 1513 1515 1516 1516 1517 1517 1516 1515 1514 1513 1512 1511 1511 1510 1510 1509 1510 1509 1509 1509 1509 1509 1510 1510 1510
1497 1495 1481 1478 1478 1481 1490 1497 1499 1514 1519 1525 1521 1513 1507 1506 1507 1509 1511 1513 1515 1516 1517 1517 1517 1517 1516 1515 1514 1513 1512 1512 1512 1511 1511 1511 1511 1511 1511 1510 1511 1511 1511 1512
1489 1494 1485 1480 1479 1482 1486 1495 1506 1515 1524 1526 1518 1515 1511 1505 1506 1508 1510 1513 1515 1516 1517 1518 1518 1518 1517 1516 1515 1515 1514 1514 1513 1513 1512 1512 1513 1513 1512 1512 1513 1513 1513 1513
1487 1494 1491 1486 1487 1488 1490 1496 1505 1515 1516 1524 1525 1517 1497 1497 1499 1503 1508 1511 1513 1516 1517 1518 1519 1519 1518 1518 1517 1516 1516 1516 1515 1515 1515 1514 1514 1515 1515 1515 1515 1515 1515 1515
1489 1496 1499 1492 1486 1485 1487 1491 1501 1509 1513 1518 1521 1515 1494 1494 1496 1500 1506 1510 1513 1516 1518 1519 1519 1519 1519 1519 1518 1518 1518 1518 1517 1517 1517 1517 1517 1517 1517 1517 1517 1517 1517 1517
1489 1497 1505 1502 1499 1491 1489 1491 1496 1503 1511 1518 1519 1510 1495 1495 1497 1501 1505 1509 1513 1515 1518 1519 1520 1520 1520 1520 1521 1520 1520 1520 1520 1520 1520 1520 1520 1520 1520 1520 1520 1520 1520 1520
1488 1497 1503 1505 1501 1493 1491 1490 1494 1500 1510 1512 1507 1499 1494 1496 1498 1501 1505 1508 1512 1515 1517 1519 1521 1522 1522 1523 1523 1523 1523 1523 1523 1523 1523 1523 1523 1523 1523 1523 1523 1523 1523 1523
1489 1496 1494 1493 1490 1489 1489 1488 1489 1494 1495 1500 1495 1493 1490 1491 1495 1499 1503 1508 1512 1514 1517 1519 1521 1523 1524 1524 1525 1526 1526 1526 1526 1526 1526 1526 1526 1526 1526 1526 1527 1527 1527 1527
1493 1496 1494 1493 1487 1487 1487 1484 1484 1486 1487 1490 1490 1490 1487 1489 1494 1499 1503 1507 1510 1514 1517 1520 1522 1524 1525 1526 1527 1528 1528 1528 1528 1528 1529 1529 1529 1529 1530 1530 1530 1530 1531 1531
1496 1497 1499 1500 1492 1488 1491 1483 1481 1482 1482 1485 1488 1488 1488 1491 1494 1498 1502 1506 1509 1513 1517 1520 1522 1525 1526 1528 1529 1530 1531 1531 1531 1532 1532 1532 1533 1533 1533 1534 1534 1534 1534 1535
1496 1499 1504 1504 1498 1498 1489 1478 1478 1480 1481 1481 1482 1485 1488 1490 1494 1498 1501 1505 1509 1513 1516 1520 1523 1526 1528 1530 1531 1532 1533 1534 1534 1534 1535 1535 1536 1536 1536 1537 1537 1538 1538 1539
1492 1497 1503 1506 1503 1496 1484 1479 1479 1481 1482 1482 1483 1486 1490 1492 1496 1501 1503 1506 1509 1513 1517 1521 1524 1527 1529 1531 1533 1534 1535 1536 1537 1537 1538 1538 1539 1539 1539 1540 1541 1541 1542 1543
1492 1495 1501 1504 1501 1499 1487 1478 1477 1480 1483 1481 1482 1485 1489 1493 1498 1501 1503 1506 1511 1515 1518 1522 1525 1529 1531 1533 1534 1536 1537 1538 1539 1540 1540 1541 1542 1542 1543 1543 1544 1545 1546 1546
1497 1498 1501 1503 1501 1493 1482 1478 1478 1487 1486 1480 1481 1484 1487 1491 1494 1498 1502 1507 1512 1516 1520 1524 1527 1530 1532 1535 1537 1538 1539 1540 1541 1542 1543 1544 1544 1545 1546 1547 1547 1548 1549 1550
1498 1500 1500 1502 1501 1496 1481 1479 1482 1482 1478 1478 1480 1484 1487 1490 1494 1498 1503 1508 1513 1517 1521 1525 1528 1531 1534 1537 1538 1540 1541 1543 1544 1545 1546 1547 1548 1548 1549 1550 1550 1551 1552 1553
1496 1496 1495 1495 1493 1484 1481 1480 1479 1478 1477 1478 1481 1485 1488 1491 1496 1500 1505 1510 1515 1519 1523 1527 1530 1533 1536 1538 1540 1542 1544 1545 1546 1547 1548 1549 1550 1551 1552 1552 1553 1554 1555 1555
1493 1491 1492 1490 1484 1481 1480 1479 1478 1477 1478 1479 1482 1485 1489 1492 1497 1502 1507 1512 1516 1520 1525 1528 1532 1535 1537 1540 1542 1544 1546 1547 1549 1550 1551 1552 1553 1553 1554 1555 1556 1556 1557 1558
1492 1490 1490 1488 1483 1481 1480 1479 1479 1479 1480 1481 1484 1488 1490 1493 1498 1503 1508 1513 1518 1522 1526 1530 1533 1536 1539 1542 1544 1546 1548 1550 1551 1552 1553 1554 1555 1556 1556 1557 1558 1559 1559 1560
1487 1487 1488 1485 1481 1482 1481 1480 1481 1481 1482 1483 1486 1489 1493 1495 1499 1504 1510 1515 1519 1524 1528 1532 1535 1538 1541 1544 1546 1548 1550 1552 1553 1554 1555 1556 1557 1558 1559 1559 1560 1561 1561 1562